Powrót do katalogu

FENGYUN 1C DEB

AktywnySSO
NORAD 33716·DEBRIS·🇨🇳 China

Wystrzelony May 10, 1999 z Taiyuan Satellite Launch Center

Loading…

Następne Przeloty (najbliższe 24 godziny)

TLE

ŚwieżeSource: Space-Track

Epoka: Sep 12, 2026, 02:10 UTC

1 33716U 99025DHD 26255.09041265  .00000167  00000-0  75159-4 0  9997
2 33716  98.8884 192.4920 0092175 277.3743  81.6972 14.32880681690729

Śledź FENGYUN 1C DEB w czasie rzeczywistym z AllMySat

Download on the App Store